TimeEDT,TemperatureF,Dew PointF,Humidity,Sea Level PressureIn,VisibilityMPH,Wind Direction,Wind SpeedMPH,Gust SpeedMPH,PrecipitationIn,Events,Conditions,WindDirDegrees,DateUTC
12:53 AM,21.9,12.0,66,30.39,10.0,South,4.6,-,N/A,,Clear,190,2013-04-04 04:53:00
1:53 AM,21.9,14.0,72,30.40,10.0,Calm,Calm,-,N/A,,Clear,0,2013-04-04 05:53:00
2:53 AM,21.9,12.9,68,30.39,10.0,South,3.5,-,N/A,,Clear,170,2013-04-04 06:53:00
3:53 AM,21.0,14.0,74,30.37,10.0,Calm,Calm,-,N/A,,Clear,0,2013-04-04 07:53:00
4:53 AM,21.0,12.0,68,30.37,10.0,South,3.5,-,N/A,,Clear,180,2013-04-04 08:53:00
5:53 AM,19.9,12.0,71,30.38,10.0,SSW,4.6,-,N/A,,Clear,200,2013-04-04 09:53:00
6:53 AM,21.0,12.9,71,30.36,10.0,Calm,Calm,-,N/A,,Clear,0,2013-04-04 10:53:00
7:53 AM,24.1,12.0,60,30.34,10.0,Calm,Calm,-,N/A,,Clear,0,2013-04-04 11:53:00
8:53 AM,28.0,12.0,51,30.32,10.0,Variable,3.5,-,N/A,,Clear,0,2013-04-04 12:53:00
9:53 AM,30.0,12.9,49,30.29,10.0,South,3.5,-,N/A,,Clear,190,2013-04-04 13:53:00
10:53 AM,35.1,12.9,40,30.27,10.0,Variable,5.8,-,N/A,,Clear,0,2013-04-04 14:53:00
11:53 AM,37.9,10.0,32,30.25,10.0,South,10.4,-,N/A,,Clear,190,2013-04-04 15:53:00
12:53 PM,42.1,10.9,28,30.20,10.0,SSW,5.8,-,N/A,,Clear,200,2013-04-04 16:53:00
1:53 PM,45.0,8.1,22,30.15,10.0,South,5.8,-,N/A,,Clear,180,2013-04-04 17:53:00
2:53 PM,50.0,8.1,18,30.11,10.0,SSW,9.2,-,N/A,,Clear,210,2013-04-04 18:53:00
3:53 PM,51.1,7.0,17,30.08,10.0,Variable,5.8,-,N/A,,Clear,0,2013-04-04 19:53:00
4:53 PM,52.0,7.0,16,30.05,10.0,South,8.1,-,N/A,,Clear,180,2013-04-04 20:53:00
5:53 PM,52.0,5.0,15,30.03,10.0,South,4.6,-,N/A,,Clear,190,2013-04-04 21:53:00
6:53 PM,51.1,8.1,18,30.02,10.0,SSW,9.2,-,N/A,,Clear,200,2013-04-04 22:53:00
7:53 PM,48.0,7.0,19,30.01,10.0,SSW,3.5,-,N/A,,Clear,210,2013-04-04 23:53:00
8:53 PM,46.0,7.0,20,30.00,10.0,South,4.6,-,N/A,,Clear,190,2013-04-05 00:53:00
9:53 PM,44.1,9.0,24,30.00,10.0,South,5.8,-,N/A,,Clear,190,2013-04-05 01:53:00
10:53 PM,42.1,10.0,27,29.98,10.0,SSW,3.5,-,N/A,,Clear,200,2013-04-05 02:53:00
11:53 PM,41.0,10.0,28,29.96,10.0,SW,4.6,-,N/A,,Clear,220,2013-04-05 03:53:00